User: anonymous   Login
Location: Les Salelles
(44.4192°N, 4.1044°E)
Time: 23:50:09
(UTC+00:00)
Language:

Helios 1A Rocket - Orbit

View from above orbital plane
View from above orbital plane
View from above satellite
View from above satellite

Ground track
Ground track

The orbit data is extracted from the following two-line orbital elements,

1 23608U 95033D   21110.56824646  .00000837  00000-0  77149-4 0  9995
2 23608  98.2977 147.4812 0015119 307.9146  52.0706 14.97641230397407
Epoch (UTC): 20 April 2021 13:38:16
Eccentricity: 0.0015119
inclination: 98.2977°
perigee height: 563 km
apogee height: 585 km
right ascension of ascending node: 147.4812°
argument of perigee: 307.9146°
revolutions per day: 14.97641230
mean anomaly at epoch: 52.0706°
orbit number at epoch: 39740

The dashed part of the orbit path shows where the satellite is in the earth's shadow,  

DLR